1381104025495,0.802574
1381104085495,0.807065
1381104145495,0.806079
1381104205495,0.805035
1381104265495,0.801997
1381104325495,0.808698
1381104385495,0.807729
1381104445495,0.814542
1381104505495,0.816747
1381104565495,0.814172
1381104625495,0.824070
1381104685495,0.813076
1381104745495,0.819308
1381104805495,0.810736
1381104865495,0.816944
1381104925495,0.813842
1381104985495,0.812547
1381105045495,0.809152
1381105105495,0.804654
1381105165495,0.814588
1381105225495,0.800049
1381105285495,0.801758
1381105345495,0.804668
1381105405495,0.804422
1381105465495,0.810107
1381105525495,0.807906
1381105585495,0.800987
1381105645495,0.803613
1381105705495,0.804912
1381105765495,0.811950
1381105825495,0.800795
1381105885495,0.810438
1381105945495,0.805757
1381106005495,0.811736
1381106065495,0.815354
1381106125495,0.815434
1381106185495,0.804374
1381106245495,0.815684
1381106305495,0.810205
1381106365495,0.815821
1381106425495,0.815661
1381106485495,0.817595
1381106545495,0.812985
1381106605495,0.819144
1381106665495,0.814993
1381106725495,0.821590
1381106785495,0.830978
1381106845495,0.828188
1381106905495,0.825524
1381106965495,0.823940
1381107025495,0.822831
1381107085495,0.823754
1381107145495,0.818739
1381107205495,0.822509
1381107265495,0.830672
1381107325495,0.831710
1381107385495,0.829444
1381107445495,0.828395
1381107505495,0.831539
1381107565495,0.828361
1381107625505,0.826698
1381107685505,0.820181
1381107745505,0.820452
1381107805505,0.825903
1381107865505,0.822567
1381107925505,0.821012
1381107985505,0.819803
1381108045505,0.823806
1381108105505,0.816512
1381108165505,0.820814
1381108225505,0.814102
1381108285505,0.818357
1381108345505,0.813158
1381108405505,0.818529
1381108465505,0.817583
1381108525505,0.818603
1381108585505,0.813289
1381108645505,0.810198
1381108705505,0.816388
1381108765505,0.814078
1381108825505,0.812908
1381108885505,0.807768
1381108945505,0.801529
1381109005505,0.812980
1381109065505,0.807057
1381109125505,0.809179
1381109185505,0.808217
1381109245505,0.809060
1381109305505,0.815575
1381109365505,0.816218
1381109425505,0.811854
1381109485505,0.815818
1381109545505,0.810154
1381109605505,0.814411
1381109665505,0.813046
1381109725505,0.816719
1381109785505,0.808347
1381109845505,0.813026
1381109905505,0.810632
1381109965505,0.817363
1381110025505,0.818151
1381110085505,0.817988
1381110145505,0.818249
1381110205505,0.809678
1381110265505,0.816898
1381110325505,0.810101
1381110385505,0.812604
1381110445505,0.812653
1381110505505,0.815484
1381110565505,0.808580
1381110625505,0.807526
1381110685505,0.811928
1381110745505,0.813052
1381110805505,0.807336
1381110865505,0.807974
1381110925505,0.809165
1381110985505,0.808080
1381111045505,0.808479
1381111105505,0.808553
1381111165505,0.807367
1381111225515,0.806632
1381111285515,0.796929
1381111345515,0.806901
1381111405515,0.813665
1381111465515,0.808032
1381111525515,0.812222
1381111585515,0.804451
1381111645515,0.808156
1381111705515,0.807506
1381111765515,0.807009
1381111825515,0.810836
1381111885515,0.802588
1381111945515,0.815726
1381112005515,0.805672
1381112065515,0.806770
1381112125515,0.797876
1381112185515,0.804386
1381112245515,0.799897
1381112305515,0.795428
1381112365515,0.807781
1381112425515,0.803565
1381112485515,0.803523
1381112545515,0.812113
1381112605515,0.807615
1381112665515,0.803915
1381112725515,0.814430
1381112785515,0.805266
1381112845515,0.805577
1381112905515,0.812161
1381112965515,0.809445
1381113025515,0.805749
1381113085515,0.804954
1381113145515,0.807594
1381113205515,0.804829
1381113265515,0.801986
1381113325515,0.805235
1381113385515,0.809353
1381113445515,0.802928
1381113505515,0.801800
1381113565515,0.807080
1381113625515,0.804340
1381113685515,0.812560
1381113745515,0.800600
1381113805515,0.812938
1381113865515,0.808854
1381113925515,0.804812
1381113985515,0.814874
1381114045515,0.805951
1381114105515,0.810311
1381114165515,0.819119
1381114225515,0.809048
1381114285515,0.815671
1381114345515,0.812356
1381114405515,0.806785
1381114465515,0.815311
1381114525515,0.811663
1381114585515,0.806971
1381114645515,0.811964
1381114705515,0.810913
1381114765515,0.802521
1381114825525,0.807358
1381114885525,0.812244
1381114945525,0.809675
1381115005525,0.806945
1381115065525,0.811795
1381115125525,0.804679
1381115185525,0.808609
1381115245525,0.811724
1381115305525,0.808052
1381115365525,0.806431
1381115425525,0.818171
1381115485525,0.808832
1381115545525,0.813553
1381115605525,0.802816
1381115665525,0.808445
1381115725525,0.807927
1381115785525,0.811814
1381115845525,0.809161
1381115905525,0.812005
1381115965525,0.815709
1381116025525,0.803692
1381116085525,0.810574
1381116145525,0.801295
1381116205525,0.815581
1381116265525,0.814370
1381116325525,0.809435
1381116385525,0.809880
1381116445525,0.803267
1381116505525,0.812756
1381116565525,0.805928
1381116625525,0.810369
1381116685525,0.810528
1381116745525,0.813266
1381116805525,0.817777
1381116865525,0.817629
1381116925525,0.816692
1381116985525,0.814258
1381117045525,0.817281
1381117105525,0.815882
1381117165525,0.818346
1381117225525,0.816597
1381117285525,0.812377
1381117345525,0.819321
1381117405525,0.816535
1381117465525,0.818990
1381117525525,0.810781
1381117585525,0.813014
1381117645525,0.814544
1381117705525,0.809755
1381117765525,0.815519
1381117825525,0.820651
1381117885525,0.822894
1381117945525,0.813950
1381118005525,0.816410
1381118065525,0.831602
1381118125525,0.820921
1381118185525,0.822352
1381118245525,0.822240
1381118305525,0.830450
1381118365525,0.827232
1381118425535,0.828373
1381118485535,0.834761
1381118545535,0.843715
1381118605535,0.851356
1381118665535,0.856771
1381118725535,0.860074
1381118785535,0.879729
1381118845535,0.902653
1381118905535,0.914111
1381118965535,0.932228
1381119025535,0.957988
1381119085535,0.986265
1381119145535,0.995904
1381119205535,1.01032
1381119265535,1.02080
1381119325535,1.03337
1381119385535,1.04352
1381119445535,1.05712
1381119505535,1.07282
1381119565535,1.08058
1381119625535,1.07251
1381119685535,1.07209
1381119745535,1.06228
1381119805535,1.04221
1381119865535,1.03035
1381119925535,1.03260
1381119985535,1.02625
1381120045535,1.01161
1381120105535,1.00205
1381120165535,0.993615
1381120225535,0.980438
1381120285535,0.976974
1381120345535,0.972971
1381120405535,0.968171
1381120465535,0.965050
1381120525535,0.960629
1381120585535,0.951753
1381120645535,0.944431
1381120705535,0.941135
1381120765535,0.934853
1381120825535,0.927224
1381120885535,0.924178
1381120945535,0.912475
1381121005535,0.904685
1381121065535,0.911255
1381121125535,0.899903
1381121185535,0.893780
1381121245535,0.890813
1381121305535,0.882619
1381121365535,0.879555
1381121425535,0.875651
1381121485535,0.878937
1381121545535,0.869310
1381121605535,0.866761
1381121665535,0.863068
1381121725535,0.856586
1381121785535,0.853453
1381121845535,0.857551
1381121905535,0.865778
1381121965535,0.862539
1381122025544,0.862082
1381122085544,0.869275
1381122145544,0.871749
1381122205544,0.876068
1381122265544,0.858599
1381122325544,0.870540
1381122385544,0.880641
1381122445544,0.876078
1381122505544,0.874051
1381122565544,0.869673
1381122625544,0.879882
1381122685544,0.873958
1381122745544,0.870431
1381122805544,0.855281
1381122865544,0.849785
1381122925544,0.858144
1381122985544,0.844914
1381123045544,0.844497
1381123105544,0.844109
1381123165544,0.849222
1381123225544,0.841399
1381123285544,0.855308
1381123345544,0.849684
1381123405544,0.846772
1381123465544,0.853971
1381123525544,0.850234
1381123585544,0.840828
1381123645544,0.842167
1381123705544,0.845733
1381123765544,0.845457
1381123825544,0.844856
1381123885544,0.847531
1381123945544,0.843737
1381124005544,0.843701
1381124065544,0.839951
1381124125544,0.836851
1381124185544,0.833033
1381124245544,0.843116
1381124305544,0.827800
1381124365544,0.838019
1381124425544,0.838323
1381124485544,0.830690
1381124545544,0.831387
1381124605544,0.838177
1381124665544,0.837211
1381124725544,0.835873
1381124785544,0.829282
1381124845544,0.839785
1381124905544,0.836997
1381124965544,0.839946
1381125025544,0.833689
1381125085544,0.830327
1381125145544,0.832125
1381125205544,0.822590
1381125265544,0.833406
1381125325544,0.823306
1381125385544,0.824781
1381125445544,0.825545
1381125505544,0.827507
1381125565544,0.835884
1381125625554,0.828757
1381125685554,0.824075
1381125745554,0.831662
1381125805554,0.825197
1381125865554,0.824767
1381125925554,0.829154
1381125985554,0.826056
1381126045554,0.817911
1381126105554,0.820212
1381126165554,0.823341
1381126225554,0.833970
1381126285554,0.829431
1381126345554,0.830188
1381126405554,0.823950
1381126465554,0.821302
1381126525554,0.821322
1381126585554,0.824819
1381126645554,0.819178
1381126705554,0.822017
1381126765554,0.819135
1381126825554,0.825598
1381126885554,0.826532
1381126945554,0.820389
1381127005554,0.815189
1381127065554,0.825894
1381127125554,0.819519
1381127185554,0.818832
1381127245554,0.821851
1381127305554,0.814195
1381127365554,0.823085
1381127425554,0.824441
1381127485554,0.813412
1381127545554,0.810587
1381127605554,0.821450
1381127665554,0.817177
1381127725554,0.816638
1381127785554,0.821833
1381127845554,0.815610
1381127905554,0.815880
1381127965554,0.818766
1381128025554,0.828353
1381128085554,0.809094
1381128145554,0.812077
1381128205554,0.812207
1381128265554,0.820845
1381128325554,0.823798
1381128385554,0.817718
1381128445554,0.818588
1381128505554,0.817629
1381128565554,0.821826
1381128625554,0.816438
1381128685554,0.819699
1381128745554,0.822060
1381128805554,0.825028
1381128865554,0.818156
1381128925554,0.823952
1381128985554,0.808135
1381129045554,0.824972
1381129105554,0.816998
1381129165554,0.822499
1381129225564,0.822613
1381129285564,0.815058
1381129345564,0.822744
1381129405564,0.822103
1381129465564,0.820519
1381129525564,0.822031
1381129585564,0.821804
1381129645564,0.815287
1381129705564,0.817238
1381129765564,0.823148
1381129825564,0.818477
1381129885564,0.828041
1381129945564,0.820909
1381130005564,0.820954
1381130065564,0.819359
1381130125564,0.816903
1381130185564,0.815067
1381130245564,0.820344
1381130305564,0.814679
1381130365564,0.816873
1381130425564,0.828489
1381130485564,0.817237
1381130545564,0.822868
1381130605564,0.822032
1381130665564,0.825568
1381130725564,0.825762
1381130785564,0.833780
1381130845564,0.831221
1381130905564,0.830892
1381130965564,0.828139
1381131025564,0.832892
1381131085564,0.831160
1381131145564,0.825463
1381131205564,0.824063
1381131265564,0.823337
1381131325564,0.821556
1381131385564,0.821571
1381131445564,0.828751
1381131505564,0.830576
1381131565564,0.831969
1381131625564,0.835905
1381131685564,0.839210
1381131745564,0.840320
1381131805564,0.822871
1381131865564,0.832198
1381131925564,0.836760
1381131985564,0.833611
1381132045564,0.829657
1381132105564,0.834290
1381132165564,0.832440
1381132225564,0.826099
1381132285564,0.830877
1381132345564,0.838157
1381132405564,0.822810
1381132465564,0.825638
1381132525564,0.833971
1381132585564,0.827973
1381132645564,0.821828
1381132705564,0.819856
1381132765564,0.830480
1381132825574,0.828837
1381132885574,0.825811
1381132945574,0.829112
1381133005574,0.826937
1381133065574,0.828584
1381133125574,0.828377
1381133185574,0.831482
1381133245574,0.836225
1381133305574,0.821123
1381133365574,0.828541
1381133425574,0.825464
1381133485574,0.823620
1381133545574,0.820871
1381133605574,0.832515
1381133665574,0.831064
1381133725574,0.830411
1381133785574,0.823223
1381133845574,0.828939
1381133905574,0.818835
1381133965574,0.824662
1381134025574,0.824180
1381134085574,0.824853
1381134145574,0.822658
1381134205574,0.825800
1381134265574,0.821369
1381134325574,0.815263
1381134385574,0.824624
1381134445574,0.811660
1381134505574,0.817868
1381134565574,0.825737
1381134625574,0.824300
1381134685574,0.823226
1381134745574,0.821741
1381134805574,0.819808
1381134865574,0.819740
1381134925574,0.821690
1381134985574,0.817200
1381135045574,0.824264
1381135105574,0.819901
1381135165574,0.816971
1381135225574,0.821792
1381135285574,0.822673
1381135345574,0.821121
1381135405574,0.817968
1381135465574,0.812968
1381135525574,0.827494
1381135585574,0.821877
1381135645574,0.820291
1381135705574,0.828347
1381135765574,0.819839
1381135825574,0.824022
1381135885574,0.827581
1381135945574,0.823950
1381136005574,0.820796
1381136065574,0.826457
1381136125574,0.825719
1381136185574,0.824485
1381136245574,0.826487
1381136305574,0.827227
1381136365574,0.820419
1381136425585,0.826485
1381136485585,0.822575
1381136545585,0.826186
1381136605585,0.820634
1381136665585,0.819573
1381136725585,0.819848
1381136785585,0.818378
1381136845585,0.824820
1381136905585,0.824093
1381136965585,0.822372
1381137025585,0.824139
1381137085585,0.826434
1381137145585,0.830719
1381137205585,0.830585
1381137265585,0.826841
1381137325585,0.832562
1381137385585,0.837228
1381137445585,0.839455
1381137505585,0.841172
1381137565585,0.834228
1381137625585,0.835167
1381137685585,0.833859
1381137745585,0.837860
1381137805585,0.836334
1381137865585,0.831012
1381137925585,0.828495
1381137985585,0.833643
1381138045585,0.825758
1381138105585,0.824816
1381138165585,0.828943
1381138225585,0.827385
1381138285585,0.830815
1381138345585,0.836854
1381138405585,0.831158
1381138465585,0.826516
1381138525585,0.825446
1381138585585,0.827454
1381138645585,0.827433
1381138705585,0.835364
1381138765585,0.829390
1381138825585,0.838397
1381138885585,0.826814
1381138945585,0.827916
1381139005585,0.831488
1381139065585,0.839108
1381139125585,0.836136
1381139185585,0.836540
1381139245585,0.837672
1381139305585,0.830651
1381139365585,0.840640
1381139425585,0.836014
1381139485585,0.831477
1381139545585,0.837462
1381139605585,0.833794
1381139665585,0.836573
1381139725585,0.834367
1381139785585,0.839065
1381139845585,0.848507
1381139905585,0.851903
1381139965585,0.849513
1381140025595,0.853971
1381140085595,0.858218
1381140145595,0.853572
1381140205595,0.845747
1381140265595,0.854601
1381140325595,0.853180
1381140385595,0.852735
1381140445595,0.851102
1381140505595,0.844089
1381140565595,0.854011
1381140625595,0.843356
1381140685595,0.851224
1381140745595,0.847049
1381140805595,0.852455
1381140865595,0.845383
1381140925595,0.847272
1381140985595,0.844616
1381141045595,0.842500
1381141105595,0.837023
1381141165595,0.848968
1381141225595,0.837837
1381141285595,0.836863
1381141345595,0.849326
1381141405595,0.837388
1381141465595,0.844609
1381141525595,0.836082
1381141585595,0.838625
1381141645595,0.837400
1381141705595,0.835766
1381141765595,0.836988
1381141825595,0.840108
1381141885595,0.831825
1381141945595,0.835302
1381142005595,0.837079
1381142065595,0.838095
1381142125595,0.842803
1381142185595,0.827569
1381142245595,0.825301
1381142305595,0.826828
1381142365595,0.827740
1381142425595,0.826433
1381142485595,0.827841
1381142545595,0.825405
1381142605595,0.826780
1381142665595,0.822832
1381142725595,0.832647
1381142785595,0.828203
1381142845595,0.825898
1381142905595,0.825503
1381142965595,0.829472
1381143025595,0.819751
1381143085595,0.832650
1381143145595,0.817311
1381143205595,0.831959
1381143265595,0.829869
1381143325595,0.831440
1381143385595,0.830153
1381143445595,0.823630
1381143505595,0.827356
1381143565595,0.827800
1381143625606,0.831819
1381143685606,0.830530
1381143745606,0.823748
1381143805606,0.832304
1381143865606,0.817287
1381143925606,0.826925
1381143985606,0.828457
1381144045606,0.826370
1381144105606,0.824628
1381144165605,0.825836
1381144225605,0.823032
1381144285606,0.829342
1381144345606,0.824302
1381144405606,0.834910
1381144465606,0.821967
1381144525606,0.819344
1381144585606,0.817503
1381144645606,0.825934
1381144705606,0.815362
1381144765606,0.816168
1381144825606,0.823800
1381144885606,0.823932
1381144945606,0.821203
1381145005606,0.820947
1381145065606,0.827290
1381145125606,0.819948
1381145185606,0.820112
1381145245606,0.821165
1381145305606,0.826049
1381145365606,0.818591
1381145425606,0.823312
1381145485606,0.821662
1381145545605,0.829854
1381145605606,0.838475
1381145665606,0.840094
1381145725606,0.845530
1381145785606,0.842739
1381145845606,0.836730
1381145905606,0.831512
1381145965606,0.827945
1381146025606,0.826155
1381146085606,0.822398
1381146145606,0.824684
1381146205606,0.828266
1381146265606,0.817187
1381146325606,0.813128
1381146385606,0.825598
1381146445606,0.825813
1381146505606,0.818685
1381146565606,0.817888
1381146625606,0.813347
1381146685606,0.819965
1381146745606,0.820510
1381146805606,0.819548
1381146865605,0.817948
1381146925605,0.825229
1381146985606,0.817863
1381147045606,0.815101
1381147105606,0.826478
1381147165606,0.814384
1381147225616,0.818886
1381147285616,0.817157
1381147345616,0.818968
1381147405616,0.819418
1381147465616,0.820086
1381147525616,0.819662
1381147585616,0.821309
1381147645616,0.819284
1381147705616,0.808773
1381147765616,0.825903
1381147825616,0.821372
1381147885616,0.814555
1381147945616,0.813237
1381148005616,0.828492
1381148065616,0.816628
1381148125616,0.813990
1381148185616,0.816061
1381148245616,0.820447
1381148305616,0.821868
1381148365616,0.824239
1381148425616,0.814868
1381148485616,0.821982
1381148545616,0.822866
1381148605616,0.822635
1381148665616,0.816221
1381148725616,0.824007
1381148785616,0.820860
1381148845616,0.819938
1381148905616,0.829192
1381148965616,0.826149
1381149025616,0.830081
1381149085616,0.818271
1381149145616,0.823177
1381149205616,0.820791
1381149265616,0.818729
1381149325616,0.824385
1381149385616,0.819670
1381149445616,0.820850
1381149505616,0.817123
1381149565616,0.816037
1381149625616,0.807847
1381149685616,0.814511
1381149745616,0.828778
1381149805616,0.819723
1381149865616,0.818072
1381149925616,0.809870
1381149985616,0.812947
1381150045616,0.810049
1381150105616,0.816979
1381150165616,0.816623
1381150225616,0.815040
1381150285616,0.823897
1381150345616,0.817463
1381150405616,0.827851
1381150465616,0.823237
1381150525616,0.818520
1381150585616,0.823795
1381150645616,0.830769
1381150705616,0.832080
1381150765616,0.826366
1381150825627,0.829152
1381150885627,0.823982
1381150945627,0.824854
1381151005627,0.824426
1381151065627,0.823958
1381151125627,0.823290
1381151185627,0.817471
1381151245627,0.832545
1381151305627,0.828693
1381151365627,0.826518
1381151425627,0.840066
1381151485627,0.832602
1381152025627,0.822407
1381152085627,0.888336
1381152145627,0.836440
1381152205627,0.840498
1381152265627,0.836772
1381152325627,0.837304
1381152385627,0.832035
1381152445627,0.838151
1381152505627,0.834861
1381152565627,0.834548
1381152625627,0.840017
1381152685627,0.832472
1381152745627,0.826600
1381152805627,0.830776
1381152865627,0.828368
1381152925627,0.830711
1381152985627,0.829160
1381153045627,0.826017
1381153105627,0.830088
1381153165627,0.832380
1381153225627,0.825110
1381153285627,0.832918
1381153345627,0.829923
1381153405627,0.832003
1381153465627,0.833271
1381153525627,0.831740
1381153585627,0.830903
1381153645627,0.829841
1381153705627,0.831566
1381153765627,0.837877
1381153825627,0.825761
1381153885627,0.834707
1381153945627,0.839301
1381154005627,0.838215
1381154065627,0.839837
1381154125627,0.846149
1381154185627,0.850912
1381154245627,0.862134
1381154305627,0.871050
1381154365627,0.869524
1381154425639,0.867292
1381154485639,0.871248
1381154545639,0.862097
1381154605639,0.860009
1381154665639,0.861133
1381154725639,0.856951
1381154785639,0.858099
1381154845639,0.855363
1381154905639,0.852318
1381154965639,0.849595
1381155025639,0.849244
1381155085639,0.858523
1381155145639,0.857838
1381155205639,0.853322
1381155265639,0.852715
1381155325639,0.846766
1381155385639,0.845903
1381155445639,0.842083
1381155505639,0.844713
1381155565639,0.850810
1381155625639,0.847194
1381155685639,0.855674
1381155745639,0.846648
1381155805639,0.851394
1381155865639,0.837522
1381155925639,0.850611
1381155985639,0.845177
1381156045639,0.844312
1381156105639,0.847602
1381156165639,0.849513
1381156225639,0.841121
1381156285639,0.846672
1381156345639,0.850231
1381156405639,0.841213
1381156465639,0.845316
1381156525639,0.845683
1381156585639,0.838596
1381156645639,0.842751
1381156705639,0.836580
1381156765639,0.841319
1381156825639,0.840910
1381156885639,0.841080
1381156945639,0.833744
1381157005639,0.834258
1381157065639,0.836658
1381157125639,0.837489
1381157185639,0.833318
1381157245639,0.831416
1381157305639,0.845678
1381157365639,0.845415
1381157425639,0.851692
1381157485639,0.848952
1381157545639,0.860238
1381157605639,0.853131
1381157665639,0.861285
1381157725639,0.867339
1381157785639,0.857788
1381157845639,0.871330
1381157905639,0.863417
1381157965639,0.867308
1381158025650,0.852773
1381158085650,0.856425
1381158145650,0.859055
1381158205650,0.856733
1381158265650,0.859328
1381158325650,0.859837
1381158385650,0.859551
1381158445650,0.855161
1381158505650,0.856770
1381158565650,0.848241
1381158625650,0.857088
1381158685650,0.858854
1381158745650,0.854885
1381158805650,0.864045
1381158865650,0.851460
1381158925650,0.854242
1381158985650,0.855887
1381159045650,0.854647
1381159105650,0.848905
1381159165650,0.860317
1381159225650,0.848140
1381159285650,0.850200
1381159345650,0.863773
1381159405650,0.856790
1381159465650,0.852543
1381159525650,0.864409
1381159585650,0.860301
1381159645650,0.857276
1381159705650,0.856368
1381159765650,0.854983
1381159825650,0.853087
1381159885650,0.858380
1381159945650,0.853236
1381160005650,0.852628
1381160065650,0.851790
1381160125650,0.852634
1381160185650,0.862550
1381160245650,0.879640
1381160305650,0.892248
1381160365650,0.908607
1381160425650,0.935604
1381160485650,0.944194
1381160545650,0.952693
1381160605650,0.952204
1381160665650,0.954147
1381160725650,0.950398
1381160785650,0.941042
1381160845650,0.945097
1381160905650,0.940616
1381160965650,0.940311
1381161025650,0.947276
1381161085650,0.957034
1381161145650,0.960456
1381161205650,0.965313
1381161265650,0.951035
1381161325650,0.945044
1381161385650,0.931998
1381161445650,0.923632
1381161505650,0.916865
1381161565650,0.908886
1381161625662,0.894202
1381161685662,0.893096
1381161745662,0.885457
1381161805662,0.884449
1381161865662,0.880346
1381161925662,0.875973
1381161985662,0.875138
1381162045662,0.871062
1381162105662,0.870327
1381162165662,0.867657
1381162225662,0.862097
1381162285662,0.858703
1381162345662,0.857859
1381162405662,0.862534
1381162465662,0.857037
1381162525662,0.865483
1381162585662,0.859270
1381162645662,0.864423
1381162705662,0.862114
1381162765662,0.852666
1381162825662,0.872003
1381162885662,0.866191
1381162945662,0.865434
1381163005662,0.868145
1381163065662,0.866998
1381163125662,0.869495
1381163185662,0.869808
1381163245662,0.873370
1381163305662,0.871624
1381163365662,0.870264
1381163425662,0.874516
1381163485662,0.869768
1381163545662,0.868640
1381163605662,0.873844
1381163665662,0.870082
1381163725662,0.865691
1381163785662,0.880707
1381163845662,0.877541
1381163905662,0.871108
1381163965662,0.875072
1381164025662,0.872523
1381164085662,0.879441
1381164145662,0.877045
1381164205662,0.873445
1381164265662,0.888761
1381164325662,0.884372
1381164385662,0.879811
1381164445662,0.879679
1381164505662,0.882177
1381164565662,0.881069
1381164625662,0.880558
1381164685662,0.884837
1381164745662,0.885802
1381164805662,0.870925
1381164865662,0.870427
1381164925662,0.881516
1381164985662,0.875295
1381165045662,0.867732
1381165105662,0.871091
1381165165662,0.872451
1381165225673,0.864813
1381165285673,0.870928
1381165345673,0.872608
1381165405673,0.864356
1381165465673,0.870619
1381165525673,0.867808
1381165585673,0.870308
1381165645673,0.871982
1381165705673,0.866331
1381165765673,0.867621
1381165825673,0.877433
1381165885673,0.872399
1381165945673,0.872210
1381166005673,0.870921
1381166065673,0.872911
1381166125673,0.868520
1381166185673,0.865086
1381166245673,0.865546
1381166305673,0.862027
1381166365673,0.862868
1381166425673,0.862084
1381166485673,0.859814
1381166545673,0.864708
1381166605673,0.860107
1381166665673,0.853500
1381166725673,0.851390
1381166785673,0.852158
1381166845673,0.850315
1381166905673,0.855625
1381166965673,0.849788
1381167025673,0.851990
1381167085673,0.846846